Location: Bohy
(49.9380°N, 13.5753°E)
Time: 21:36:20
(UTC+00:00)

ALOS 2 - Pass Details

Date: 19 May 2025
Orbit: 630 x 632 km, 97.9° (Epoch: 15 June)

Event Time Altitude Azimuth Distance (km) Brightness Sun altitude
Exits shadow 22:19:02 44° 151° (SSE) 874 2.8 -19.4°
Maximum altitude 22:20:22 78° 74° (ENE) 653 2.6 -19.5°
Drops below altitude 10° 22:24:47 10° 349° (NNW) 2,027 6.4 -19.6°
Sets 22:26:59 0° 348° (NNW) 2,939 7.7 -19.6°
